Overview Statistics Trail Chart Weather Telemetry Raw packets
 

This is the latest recevied weather packets stored in our database for station/object SP9MUF-14. If no packets are shown the sender has not sent any weather packets the latest 10 day(s).

<< 29 30 31 32 33 34 35 >>
Time Temp. Humidity Pressure Rain* Wind** Luminosity Snow
1788024449 21.67° C 58% 1014.9 hPa 0 mm - 3 W/m² -
1788023844 22.78° C 57% 1014.7 hPa 0 mm - 7 W/m² -
1788023542 22.78° C 58% 1014.8 hPa 0 mm - 10 W/m² -
1788023240 22.78° C 57% 1014.7 hPa 0 mm - 13 W/m² -
1788022938 22.78° C 56% 1014.7 hPa 0 mm - 15 W/m² -
1788022636 22.78° C 56% 1014.7 hPa 0 mm - 19 W/m² -
1788022334 22.78° C 54% 1014.5 hPa 0 mm - 28 W/m² -
1788022032 23.89° C 54% 1014.5 hPa 0 mm - 26 W/m² -
1788021729 23.89° C 53% 1014.5 hPa 0 mm - 22 W/m² -
1788021428 25° C 50% 1014.4 hPa 0 mm - 30 W/m² -
1788021125 23.89° C 51% 1014.5 hPa 0 mm - 41 W/m² -
1788020823 23.89° C 52% 1014.4 hPa 0 mm - 23 W/m² -
1788020521 25° C 48% 1014.4 hPa 0 mm - 49 W/m² -
1788020219 25° C 49% 1014.4 hPa 0 mm - 52 W/m² -
1788019917 25° C 51% 1014.3 hPa 0 mm - 56 W/m² -
1788019615 25° C 52% 1014.3 hPa 0 mm - 60 W/m² -
1788019313 25.56° C 50% 1014.4 hPa 0 mm - 63 W/m² -
1788018708 25.56° C 50% 1014.4 hPa 0 mm - 72 W/m² -
1788018406 25° C 50% 1014.4 hPa 0 mm - 78 W/m² -
1788018104 25° C 50% 1014.5 hPa 0 mm - 84 W/m² -
1788017802 25° C 52% 1014.5 hPa 0 mm - 92 W/m² -
1788017500 25° C 50% 1014.5 hPa 0 mm - 103 W/m² -
1788016896 25.56° C 49% 1014.4 hPa 0 mm - 116 W/m² -
1788016594 25.56° C 48% 1014.3 hPa 0 mm - 126 W/m² -
1788016294 25.56° C 45% 1014.4 hPa 0 mm - 138 W/m² -

* Rain latest hour (hover to see other rain measurements)
** Current wind speed in m/s (hover to see current wind gust speed)